Theta_e
311 311 311 310 310 308 299 288 276 292 293 278 283 280 283 286 286 289 287 286 282 280 278 280 281 280 283 291 291 287 291 286 282 285 290 291 290 290 291 284 282 283 282 283
311 311 311 310 309 304 294 286 282 291 290 270 268 283 281 285 284 285 285 284 287 284 280 278 282 283 290 291 292 286 291 284 279 281 284 288 287 288 290 289 286 282 281 283
311 311 310 310 309 305 294 284 275 278 284 285 283 280 281 281 287 286 286 284 287 284 280 284 280 283 289 290 292 294 294 286 282 277 281 285 284 287 288 288 281 282 283 283
311 311 310 310 309 306 292 282 273 276 269 274 283 283 282 281 280 283 284 281 283 282 274 280 281 284 285 290 292 291 291 281 285 286 287 287 285 285 286 285 286 283 285 285
311 311 310 310 309 303 290 281 276 281 273 281 280 281 273 279 276 280 280 279 283 283 278 280 277 281 283 284 288 287 290 282 284 281 284 285 284 288 286 287 287 287 287 287
310 310 310 309 308 300 287 284 285 282 280 276 275 276 276 279 281 281 283 283 282 281 282 283 285 284 284 284 284 285 285 278 273 270 280 279 273 282 286 287 288 288 284 289
310 310 309 309 307 299 290 286 285 278 270 281 278 280 281 280 281 279 281 283 282 284 288 287 286 285 284 285 286 289 285 283 283 269 270 271 280 284 286 286 288 290 290 291
310 309 308 308 307 302 291 288 286 280 269 279 280 281 280 279 280 280 280 282 284 287 284 278 269 276 280 281 284 285 288 285 277 270 276 276 279 281 284 284 284 290 290 291
309 308 308 308 307 303 291 287 288 283 275 274 282 278 279 272 269 273 279 282 284 283 280 270 263 264 265 274 276 285 286 287 281 276 272 267 279 282 285 287 278 283 285 289
309 308 307 307 307 303 293 287 288 285 275 278 278 275 276 279 275 273 272 278 279 280 272 265 265 264 268 267 266 276 278 282 274 276 268 272 281 283 285 274 279 282 283 285
309 308 307 307 307 302 293 285 287 286 277 278 281 280 277 276 275 270 273 273 273 268 265 264 265 265 270 269 273 276 275 275 275 269 266 270 282 284 281 284 282 282 282 283
308 308 307 307 306 302 293 284 288 287 280 278 283 283 283 281 279 275 275 275 270 276 267 266 264 265 266 265 264 278 274 279 275 277 278 283 283 283 285 284 284 283 283 284
308 308 308 307 306 301 293 284 285 282 275 277 278 279 284 288 285 285 272 275 281 279 278 270 267 265 274 265 268 273 276 278 277 279 282 282 284 283 284 285 285 284 284 283
308 308 307 307 305 300 293 287 286 283 277 270 273 286 283 286 287 286 285 282 282 280 275 271 264 263 275 272 275 274 275 276 273 275 281 281 283 282 284 283 283 283 283 283
307 307 306 306 303 298 290 287 287 286 282 271 274 281 284 286 286 285 285 284 283 281 270 265 265 272 271 271 271 270 274 275 275 276 280 282 282 279 281 281 282 282 282 281
307 306 306 304 300 295 288 281 284 286 283 273 267 278 281 284 285 283 282 282 281 280 278 275 278 277 272 267 266 273 275 276 278 276 277 279 278 278 278 278 277 278 279 280
306 306 305 302 299 287 282 281 283 289 283 274 269 272 279 282 283 282 280 281 278 278 276 272 276 275 273 273 266 274 275 274 276 276 278 277 277 276 277 278 275 272 271 271
305 305 303 300 296 290 281 283 290 286 278 273 267 266 271 279 278 277 281 278 278 276 276 276 274 273 274 268 270 271 271 272 271 272 269 273 272 270 269 268 269 270 271 268
304 301 297 288 282 278 278 291 288 282 279 270 263 266 263 278 278 279 279 280 274 274 265 273 268 263 267 269 269 265 266 270 270 263 261 262 266 265 264 264 265 268 268 266
298 290 280 273 277 291 290 279 274 275 272 268 267 264 265 275 277 276 276 273 272 260 263 269 269 264 267 270 271 268 265 264 262 268 268 265 266 263 264 265 262 264 266 264
284 275 276 282 291 281 270 269 270 268 270 266 264 266 270 275 267 271 275 262 267 259 262 261 253 262 270 267 264 263 260 260 265 261 261 261 264 264 264 263 260 260 262 266
284 281 282 279 277 271 269 263 262 265 272 265 270 269 269 271 269 266 266 260 259 261 255 258 258 268 268 262 264 262 258 256 258 257 262 260 259 258 259 261 261 262 262 261
286 282 277 278 273 266 268 265 262 262 268 267 269 267 268 265 268 261 261 260 261 255 256 261 266 268 266 263 259 259 254 254 255 258 257 257 258 256 258 261 258 259 264 260
283 277 271 275 266 268 266 267 271 273 271 270 267 268 266 260 264 261 263 258 257 257 259 265 267 266 265 260 258 258 260 256 257 258 257 258 259 260 257 258 259 266 266 260
282 278 273 267 266 260 258 261 271 270 275 269 265 262 267 257 261 258 257 259 259 262 267 267 268 265 262 261 259 259 259 258 260 258 260 260 260 262 260 258 257 261 261 260
281 272 268 260 267 260 260 263 270 273 275 268 265 258 259 258 261 260 262 263 264 268 264 266 263 262 260 260 259 260 260 260 261 261 260 260 261 262 259 258 260 259 260 262
280 269 260 267 271 275 270 272 274 277 273 267 263 263 264 258 256 260 262 266 268 267 265 260 261 263 262 260 260 261 263 265 266 261 259 258 256 257 261 265 258 261 262 262
Wind_Speed
16 15 16 16 14 12 6 4 3 4 3 6 1 1 1 3 4 1 3 2 4 3 3 4 2 4 5 7 1 3 3 1 2 2 1 3 2 2 3 3 3 3 1 4
16 16 16 16 16 9 4 3 1 3 4 3 2 2 4 4 4 4 2 3 3 1 2 4 4 3 5 5 4 3 1 3 2 3 2 2 1 1 1 0 3 4 5 3
18 17 17 15 14 9 5 4 2 5 4 1 2 2 2 3 5 5 1 3 3 3 3 5 4 4 4 4 5 10 2 1 2 2 1 3 4 2 2 2 3 2 3 3
19 18 17 15 13 10 5 3 3 4 2 3 3 2 2 3 3 2 4 3 3 2 3 4 3 1 5 3 5 6 3 3 3 2 5 2 1 2 3 2 1 4 4 3
20 19 18 16 14 10 5 5 5 0 2 1 2 3 4 5 5 3 2 2 4 3 3 2 3 4 4 2 4 5 5 1 2 1 4 5 2 4 6 5 3 4 3 5
22 20 19 17 16 7 3 1 2 5 2 1 4 5 5 3 3 2 2 2 3 3 2 2 4 3 6 4 5 3 4 1 3 4 3 4 5 7 7 5 4 4 4 4
22 21 20 18 18 6 4 3 4 5 3 3 4 2 4 2 4 3 1 3 3 2 3 4 4 6 8 7 6 5 2 0 1 2 4 1 7 3 4 6 3 7 2 4
24 22 20 19 18 10 4 3 5 4 2 3 3 5 4 1 4 2 2 2 1 1 3 2 6 3 2 2 2 4 1 2 2 3 2 5 2 2 4 6 7 9 11 6
25 23 21 19 18 12 5 2 3 4 6 6 1 2 3 3 2 5 3 1 0 1 1 3 3 2 5 1 5 1 3 1 2 2 3 6 6 1 2 3 4 2 2 6
25 23 21 19 18 14 5 2 3 5 4 2 3 3 4 4 1 2 3 3 1 3 2 2 2 3 2 1 2 3 1 2 4 1 1 9 8 3 2 7 5 1 2 3
26 24 22 20 19 16 6 2 1 5 3 1 1 1 1 3 1 4 5 5 5 4 4 3 3 2 4 1 4 4 6 5 3 3 3 8 4 4 5 4 1 2 2 2
26 25 23 21 21 17 9 4 1 3 6 4 2 2 1 1 3 3 3 4 3 3 4 1 3 2 2 2 4 0 3 6 5 7 8 1 4 2 2 3 3 2 1 1
27 25 24 23 22 18 9 4 4 5 4 3 2 1 3 1 2 2 3 3 1 1 2 4 2 2 3 2 6 2 4 2 2 1 4 5 5 4 3 4 3 3 2 1
27 26 25 23 22 18 11 4 4 5 4 5 4 0 1 1 1 1 1 1 2 3 3 2 2 3 1 3 2 3 5 3 5 6 8 7 8 7 6 6 3 3 2 1
28 26 25 24 23 17 8 3 3 3 6 5 2 1 1 1 2 3 3 2 2 0 2 2 3 1 2 2 2 5 6 8 6 7 4 1 4 3 3 4 6 6 4 2
28 26 26 27 24 17 5 4 1 3 4 6 2 3 1 1 2 3 4 2 0 1 1 2 2 1 3 1 4 7 5 3 3 3 3 1 3 1 1 1 2 2 4 1
28 28 28 27 22 5 4 6 4 8 4 5 2 1 2 1 2 1 1 2 1 1 0 1 2 2 2 2 5 5 3 3 4 4 3 4 2 3 5 2 2 3 3 2
29 29 28 23 20 12 4 3 6 4 6 4 4 2 2 2 2 1 1 2 1 1 1 1 1 2 1 7 12 8 6 7 4 5 3 2 2 1 4 3 3 4 3 3
33 33 28 7 5 3 3 9 8 3 5 4 4 5 5 2 1 2 1 0 2 1 0 1 3 3 8 11 8 5 6 3 3 2 1 3 1 3 3 3 3 3 2 1
38 14 6 2 3 15 11 7 4 5 4 4 3 1 2 3 3 3 3 1 1 1 4 2 3 7 8 10 10 7 6 6 5 3 5 2 4 4 2 4 2 2 2 3
5 5 4 1 9 3 5 2 4 2 2 1 3 3 6 2 4 4 1 3 1 2 5 4 3 7 7 4 6 5 3 3 7 2 1 2 3 4 5 3 3 1 3 3
11 14 9 3 3 4 6 3 3 2 7 2 5 4 4 2 3 5 1 4 3 4 0 4 5 8 6 3 4 3 1 3 1 2 3 2 2 2 3 3 4 5 4 3
7 7 6 3 0 4 11 10 6 2 5 6 4 2 4 2 3 4 4 4 5 1 3 6 8 5 5 5 3 4 2 1 1 1 1 1 1 1 1 1 1 4 6 3
6 6 6 8 6 8 7 6 7 4 6 8 4 4 4 1 5 2 5 2 3 3 2 8 5 5 4 2 1 1 2 0 3 3 1 2 3 3 3 3 3 6 6 3
6 6 9 6 3 3 1 1 5 1 9 7 5 5 3 2 5 2 4 4 5 7 8 5 4 4 3 2 3 3 2 2 2 1 2 2 3 4 4 4 3 5 6 6
4 4 5 2 6 2 1 2 4 3 8 3 5 5 5 1 6 4 9 7 8 7 6 5 2 3 3 4 4 4 4 4 4 3 3 3 4 4 4 3 7 5 5 7
6 2 1 3 4 7 5 4 5 4 4 4 5 7 8 4 4 3 6 8 6 5 4 3 4 4 4 5 5 5 6 5 5 3 3 4 3 4 4 8 4 5 6 7
Wind_Direction
169 169 167 167 163 139 81 99 61 320 23 57 34 203 246 303 255 115 268 258 244 219 271 302 284 299 264 359 50 291 144 261 227 92 27 59 275 302 212 154 186 185 246 278
172 175 170 170 168 160 124 98 140 334 81 119 287 251 286 258 276 220 255 275 262 279 265 292 216 239 295 15 7 353 65 253 164 116 36 51 171 278 35 283 77 204 153 245
173 179 173 175 169 158 89 94 57 335 47 298 168 258 252 291 237 263 203 263 271 263 275 201 282 318 309 339 357 325 202 292 343 102 6 101 179 221 214 110 100 175 249 165
176 179 178 175 168 156 94 42 227 178 250 287 185 233 302 278 287 269 203 290 251 303 303 300 222 305 296 333 360 336 350 345 10 353 337 217 195 188 155 140 199 157 249 205
176 179 179 172 161 135 80 132 136 344 170 242 214 256 253 206 271 229 255 195 308 252 235 236 294 357 38 44 325 354 326 223 135 202 4 11 303 208 181 185 257 277 237 294
175 180 177 172 159 121 118 213 73 106 211 150 100 224 221 228 170 245 202 246 288 278 260 253 289 265 289 273 313 299 318 47 65 272 13 3 340 221 194 189 192 176 216 245
176 179 175 174 169 134 130 178 112 95 251 196 211 243 215 236 234 236 199 192 262 292 335 285 257 251 258 264 272 281 318 133 6 246 18 3 245 297 209 186 233 217 228 225
176 177 174 174 171 141 105 155 118 124 196 189 291 247 234 14 312 247 254 194 195 268 304 359 3 328 321 292 257 300 331 3 68 117 192 274 299 187 146 164 272 213 222 214
176 176 174 173 169 146 97 109 114 111 119 248 234 183 182 187 246 334 286 341 43 313 49 64 124 235 232 297 333 18 306 206 16 96 132 200 237 214 242 156 293 75 174 199
176 176 174 168 161 150 113 112 101 97 123 264 105 185 188 143 92 181 299 308 354 26 63 77 157 271 201 276 175 170 165 172 186 142 245 288 247 262 312 79 244 44 10 7
177 177 173 166 157 145 109 132 57 120 123 299 36 5 103 24 75 145 245 41 341 24 52 108 250 150 232 21 253 196 166 146 189 86 63 290 168 62 161 216 48 114 39 25
177 177 174 167 158 146 116 100 19 83 86 177 122 116 181 92 190 145 332 170 170 188 80 335 77 315 32 173 270 61 243 187 186 180 212 238 232 297 272 169 152 223 299 333
175 174 173 166 158 155 114 126 146 68 91 360 53 244 212 250 53 121 117 300 202 119 154 160 172 224 130 200 246 287 265 171 225 37 278 239 234 240 245 214 209 183 238 278
172 171 169 163 155 143 118 132 161 94 113 116 283 143 231 145 18 262 226 295 20 97 84 112 134 165 154 242 269 209 208 101 191 266 288 291 256 227 231 240 237 188 193 238
167 167 162 155 146 126 91 94 188 131 127 179 209 276 337 244 233 229 229 245 252 212 44 86 236 257 40 303 357 247 191 191 169 220 267 203 288 8 16 247 227 215 206 235
162 159 153 147 139 126 91 17 277 168 127 100 61 281 193 36 47 81 53 24 16 355 230 258 298 269 109 358 258 257 229 265 225 244 327 276 326 316 317 315 252 204 187 224
155 150 147 142 143 90 124 185 212 144 99 93 60 1 342 305 128 104 98 43 72 300 329 252 308 293 92 240 247 246 207 300 291 275 300 285 186 226 339 20 17 75 100 75
145 140 134 129 108 102 46 350 106 91 91 72 117 256 338 271 179 185 146 152 132 87 335 355 262 270 227 253 247 271 272 283 277 275 326 242 289 7 349 346 9 38 50 11
131 121 117 89 43 83 221 123 79 56 125 152 106 145 227 166 215 93 133 275 218 50 280 229 82 272 232 228 239 248 243 179 247 331 24 5 120 276 297 3 20 121 256 49
122 112 78 60 260 133 126 16 39 0 334 38 154 86 159 127 179 183 156 343 232 229 252 344 228 259 265 259 242 242 242 216 163 59 329 328 294 237 252 224 265 205 179 150
82 102 89 149 139 70 36 75 112 299 305 141 185 154 140 269 120 176 158 192 94 57 261 132 303 274 248 250 256 252 269 226 223 179 244 207 192 207 217 267 246 252 180 180
140 113 104 103 79 58 108 210 334 180 218 217 140 183 144 142 105 101 307 147 46 241 347 69 279 251 255 276 268 297 325 354 280 200 230 272 265 288 225 187 183 197 201 150
98 78 98 130 287 72 173 193 258 245 174 179 162 128 126 64 65 64 95 93 219 47 52 233 233 265 284 265 273 304 333 59 107 178 75 186 189 69 85 163 299 121 95 59
96 134 137 184 193 226 177 173 173 186 121 139 116 103 123 167 70 132 107 230 69 34 354 238 247 234 248 270 256 75 299 359 157 170 190 98 94 58 33 63 151 128 127 153
131 136 198 189 174 57 226 160 105 134 140 125 94 59 89 28 96 51 106 39 263 206 228 230 230 226 207 222 196 182 170 138 151 154 108 113 134 104 83 18 39 88 99 95
121 82 101 334 86 0 29 111 118 176 147 101 65 115 68 255 132 103 213 134 222 242 220 229 198 210 203 196 177 173 152 170 178 160 147 129 110 93 107 63 53 63 91 93
154 206 13 154 121 155 159 141 144 133 123 157 128 107 194 103 56 260 195 206 220 215 239 224 199 184 196 169 150 159 164 171 164 115 102 101 111 102 68 82 15 62 71 86